Last 30 Days

Squaw-Siberia 8700'

Daily Data | America/Los_Angeles
as of 5/24/19 2:19 PM PDT
Date Daily Max Temp (°F) Max Temp Time Daily Min Temp (°F) Min Temp Time Wind Spd (mph) Daily Max Wind (mph) Max Wind Time Max Wind Dir (°) Wet Bulb (°F) WetB Hrs <28F (hrs)
5/23/19 33.9 1518 30.0 0002 18.5 57.6 0022 NE | 54 31.4 0.0
5/22/19 31.8 1730 22.7 0352 27.4 53.8 1918 NE | 39 27.4 10.8
5/21/19 27.8 1430 21.1 0652 33.8 97.4 0355 SW | 223 23.8 24.0
5/20/19 29.3 0828 19.6 0045 26.5 69.2 2335 SSW | 198 24.9 22.0
5/19/19 27.7 1432 19.3 2229 29.5 78.4 0541 SW | 236 23.2 24.0
5/18/19 31.2 1237 24.2 1925 22.8 60.2 2017 S | 171 26.6 18.8
5/17/19 31.8 1522 21.2 0311 24.3 62.7 0129 W | 278 26.5 14.4
5/16/19 25.4 1303 20.9 0723 51.2 95.8 1551 S | 186 23.1 16.6
5/14/19 46.1 1529 36.8 2358 23.9 52.9 1240 SW | 214 34.6 0.0
5/10/19 45.2 1744 27.1 0617 29.6 79.9 0939 ENE | 60 29.8 6.7
5/9/19 46.6 1334 32.8 2352 19.8 58.9 2344 ENE | 68 33.4 0.0
5/8/19 52.0 1650 36.7 0450 12.8 33.4 0406 NE | 50 36.9 0.0
5/7/19 50.7 1459 38.5 0613 12.0 34.4 1711 WSW | 239 37.6 0.0
5/6/19 50.0 1324 36.1 2111 16.5 44.6 2134 ENE | 70 36.4 0.0
5/5/19 53.9 1450 36.8 1919 9.2 34.3 1804 NW | 309 36.3 0.0
5/4/19 50.5 1645 38.0 0358 8.6 26.2 1545 SSW | 205 34.4 0.0
5/3/19 48.0 1546 37.0 0407 8.6 24.9 1402 WSW | 242 35.0 0.0
5/2/19 46.7 1616 28.7 0326 8.4 27.8 1756 SW | 225 29.9 11.2
5/1/19 41.8 1501 21.7 0101 18.0 37.4 0822 ENE | 62 26.2 12.9
4/30/19 24.4 1735 21.9 2016 18.5 32.5 1952 NNE | 25 22.9 6.4
4/25/19 53.1 1343 43.0 2351 14.3 47.0 1803 SW | 216 39.8 0.0
4/24/19 49.0 2229 46.6 2126 4.3 8.4 2228 WSW | 248 40.8 0.0
Max 53.9 - 46.6 - 51.2 97.4 - - 40.8 24.0
Avg - - - - 19.9 - - - 30.9 -
Min 24.4 - 19.3 - 4.3 8.4 - - 22.9 0.0